Weather History for KPWK - September, 2012

Change the Weather History Date:

Friday, September 21, 2012

  Actual Average Record
Temperature  
Mean Temperature 53 °F 62 °F  
Max Temperature 59 °F 72 °F 90 °F (2010)
Min Temperature 47 °F 52 °F 40 °F (2006)
Degree Days  
Heating Degree Days 12 4  
Month to date heating degree days 51 45  
Since 1 July heating degree days 52 55  
Cooling Degree Days 0 2  
Month to date cooling degree days 81 70  
Year to date cooling degree days 1225 767  
Growing Degree Days 4 (Base 50)    
Moisture  
Dew Point 45 °F    
Average Humidity 76    
Maximum Humidity 93    
Minimum Humidity 53    
Precipitation  
Precipitation 0.12 in 0.10 in 0.31 in (2010)
Month to date precipitation 1.42 2.19  
Year to date precipitation 16.28 24.67  
Sea Level Pressure  
Sea Level Pressure 29.89 in    
Wind  
Wind Speed 4 mph (WNW)    
Max Wind Speed 16 mph    
Max Gust Speed 20 mph    
Visibility 10 miles    
Events Rain    
T = Trace of Precipitation, MM = Missing Value Source: NWS Daily Summary

Daily Weather History Graph

Daily Weather History Graph

Search for Another Location

Airport or City:

Trip Planner

Search our weather history database for the weather conditions in past years. The results will help you decide how hot, cold, wet, or windy it might be!

Date:

Astronomy

Sep. 21, 2012 Rise Set
Actual Time 6:38 AM CDT 6:49 PM CDT
Civil Twilight 6:10 AM CDT 7:17 PM CDT
Nautical Twilight 5:37 AM CDT 7:50 PM CDT
Astronomical Twilight 5:04 AM CDT 8:23 PM CDT
Moon 1:06 PM CDT (9/21) 10:43 PM CDT (9/21)
Length of Visible Light 13h 07m
Length of Day
12h 11m
Waxing Crescent, 37% of the Moon is Illuminated
Sep 21
Waxing Crescent
Sep 22
First Quarter
Sep 29
Full
Oct 8
Last Quarter
Oct 15
New

Hourly Weather History & Observations

Time (CDT) Temp. Dew Point Humidity Pressure Visibility Wind Dir Wind Speed Gust Speed Precip Events Conditions
12:52 AM 51.1 °F 37.0 °F 59% 29.95 in 10.0 mi Calm Calm - N/A   Clear
1:52 AM 50.0 °F 39.0 °F 66% 29.95 in 10.0 mi Calm Calm - N/A   Clear
2:52 AM 51.1 °F 39.9 °F 66% 29.94 in 10.0 mi Calm Calm - N/A   Clear
3:52 AM 48.9 °F 41.0 °F 74% 29.93 in 10.0 mi Calm Calm - N/A   Clear
4:52 AM 48.9 °F 41.0 °F 74% 29.93 in 10.0 mi Calm Calm - N/A   Clear
5:52 AM 48.0 °F 39.9 °F 74% 29.92 in 10.0 mi Calm Calm - N/A   Partly Cloudy
6:52 AM 50.0 °F 41.0 °F 71% 29.92 in 10.0 mi SSE 3.5 mph - N/A   Scattered Clouds
7:52 AM 52.0 °F 42.1 °F 69% 29.92 in 10.0 mi Calm Calm - N/A   Clear
8:52 AM 55.9 °F 39.0 °F 53% 29.92 in 10.0 mi SSW 4.6 mph - N/A   Mostly Cloudy
9:52 AM 55.9 °F 42.1 °F 60% 29.95 in 10.0 mi West 9.2 mph 16.1 mph 0.00 in Rain Light Rain
10:52 AM 55.9 °F 44.1 °F 64% 29.94 in 10.0 mi West 8.1 mph - 0.00 in Rain Light Rain
11:52 AM 59.0 °F 45.0 °F 60% 29.93 in 10.0 mi NW 10.4 mph - 0.00 in   Overcast
12:52 PM 57.0 °F 46.0 °F 67% 29.92 in 10.0 mi NNW 6.9 mph - N/A   Overcast
1:52 PM 55.0 °F 48.9 °F 80% 29.91 in 10.0 mi North 8.1 mph - 0.01 in Rain Light Rain
2:52 PM 55.0 °F 48.0 °F 77% 29.87 in 10.0 mi North 3.5 mph - 0.00 in Rain Light Rain
3:52 PM 54.0 °F 50.0 °F 86% 29.87 in 10.0 mi North 8.1 mph - 0.02 in   Overcast
4:52 PM 53.1 °F 48.0 °F 83% 29.87 in 7.0 mi North 3.5 mph - 0.02 in Rain Light Rain
5:52 PM 52.0 °F 48.9 °F 89% 29.86 in 4.0 mi SE 3.5 mph - 0.05 in Rain Light Rain
6:52 PM 52.0 °F 50.0 °F 93% 29.84 in 10.0 mi SSE 5.8 mph - 0.01 in   Overcast
7:52 PM 52.0 °F 50.0 °F 93% 29.83 in 10.0 mi SSE 8.1 mph - 0.00 in   Overcast
8:52 PM 53.1 °F 50.0 °F 89% 29.82 in 10.0 mi Calm Calm - N/A   Overcast
9:52 PM 52.0 °F 50.0 °F 93% 29.82 in 10.0 mi Calm Calm - N/A   Scattered Clouds
10:52 PM 52.0 °F 50.0 °F 93% 29.82 in 9.0 mi WSW 3.5 mph - N/A   Overcast
11:52 PM 51.1 °F 48.9 °F 92% 29.82 in 7.0 mi West 4.6 mph - N/A   Mostly Cloudy